User: anonymous   Login
Location: Unspecified
(0.0000°N, 0.0000°E)
Time: 23:32:04
(UTC+00:00)
Language:

USA 103 - Orbit

View from above orbital plane
View from above orbital plane
View from above satellite
View from above satellite

Ground track
Ground track

The orbit data is extracted from the following two-line orbital elements,

1 23097U 94026A   18133.70459102 0.00000000  00000-0  00000-0 0    09
2 23097  64.0152 107.5320 6644934 261.8545  23.6582  2.00618012    02
Epoch (UTC): 13 May 2018 16:54:36
Eccentricity: 0.6644934
inclination: 64.0152°
perigee height: 2531 km
apogee height: 37823 km
right ascension of ascending node: 107.5320°
argument of perigee: 261.8545°
revolutions per day: 2.00618012
mean anomaly at epoch: 23.6582°
orbit number at epoch: 0

The dashed part of the orbit path shows where the satellite is in the earth's shadow,  

DLR